Location: Grisols
(45.0093°N, 3.1167°E)
Time: 02:46:09
(UTC+00:00)

Cosmos 1898 Rocket - Pass Details

Date: 21 October 2019
Orbit: 753 x 784 km, 74.0° (Epoch: 18 November)

Event Time Altitude Azimuth Distance (km) Brightness Sun altitude
Rises 18:41:10 0° 341° (NNW) 3,252 7.1 -19.8°
Reaches altitude 10° 18:43:35 10° 346° (NNW) 2,327 6.2 -20.2°
Maximum altitude 18:48:48 58° 65° (ENE) 908 3.5 -21.1°
Enters shadow 18:50:03 46° 114° (ESE) 1,043 3.7 -21.3°
